User: anonymous   Login
Location: Cherry Springs State Park
(41.6616°N, 77.8240°W)
Time: 19:29:12
(UTC-05:00)
Language:

Cosmos 1437 - Orbit

View from above orbital plane
View from above orbital plane
View from above satellite
View from above satellite

Ground track
Ground track

The orbit data is extracted from the following two-line orbital elements,

1 13770U 83003A   14328.18221350  .00012518  00000-0  37883-3 0  7102
2 13770 081.1645 205.3049 0008716 295.9058 183.6183 15.34032399742077
Epoch (UTC): 24 November 2014 04:22:23
Eccentricity: 0.0008716
inclination: 81.1645°
perigee height: 458 km
apogee height: 470 km
right ascension of ascending node: 205.3049°
argument of perigee: 295.9058°
revolutions per day: 15.34032399
mean anomaly at epoch: 183.6183°
orbit number at epoch: 74207

The dashed part of the orbit path shows where the satellite is in the earth's shadow,  

DLR